Regional Weather Roundup
Issued by NWS Upton, NY

Current Version | Previous Version | Text Only | Print | Product List | Glossary Off
Versions: 1 2 3 4 5 6 7 8 9 10 11 12 13 14 15 16 17 18 19 20 21 22 23 24 25 26 27 28 29 30 31 32 33 34 35 36 37 38 39 40 41 42 43 44 45 46 47 48 49 50
000 ASUS41 KOKX 201805 RWROKX REGIONAL WEATHER ROUNDUP NATIONAL WEATHER SERVICE NEW YORK NY 100 PM EST SAT DEC 20 2014 NOTE: "FAIR" INDICATES FEW OR NO CLOUDS BELOW 12,000 FEET WITH NO SIGNIFICANT WEATHER AND/OR OBSTRUCTIONS TO VISIBILITY. NYZ071-072-176-178-NJZ106-104-201900- NEW YORK CITY METRO AREA CITY SKY/WX TMP DP RH WIND PRES REMARKS CENTRAL PARK CLOUDY 32 18 56 N7 30.28F WCI 26 LAGUARDIA APRT CLOUDY 32 20 61 N7 30.26F WCI 26 KENNEDY INTL CLOUDY 34 20 56 N6 30.27F WCI 29 NEWARK/LIBERTY CLOUDY 32 21 64 NW8 30.27F WCI 25 BRNX BOT. GARD N/A N/A N/A N/A NW3 30.27F TETERBORO CLOUDY 32 19 58 NW6 30.26F WCI 26 $$ NYZ177-179-078>081-201900- LONG ISLAND NEW YORK CITY SKY/WX TMP DP RH WIND PRES REMARKS FARMINGDALE CLOUDY 32 21 64 NW3 30.26F ISLIP CLOUDY 32 21 64 NW7 30.25F WCI 26 SHIRLEY CLOUDY 32 23 69 NW9 30.27S WCI 24 WESTHAMPTON CLOUDY 33 23 66 NW8 30.27S WCI 26 MONTAUK POINT N/A 35 28 75 W6 30.26S WCI 30 $$ NYZ052-065-067-201900- HUDSON VALLEY CITY SKY/WX TMP DP RH WIND PRES REMARKS WHITE PLAINS PTSUNNY 31 20 63 NW5 30.24S WCI 26 NEWBURGH CLOUDY 28 21 74 VRB5 30.26F WCI 23 MONTGOMERY CLOUDY 30 20 66 NE3 30.25F POUGHKEEPSIE CLOUDY 31 19 61 N8 30.27F WCI 23 ALBANY PTSUNNY 29 17 61 CALM 30.30S $$ NJZ001-105-106-008-010-013-015-019>022-104-201900- NEW JERSEY CITY SKY/WX TMP DP RH WIND PRES REMARKS NEWARK/LIBERTY CLOUDY 32 21 64 NW8 30.27F WCI 25 TETERBORO CLOUDY 32 19 58 NW6 30.26F WCI 26 CALDWELL CLOUDY 31 20 63 NE6 30.27F WCI 25 MORRISTOWN CLOUDY 32 23 69 NE8 30.26F WCI 25 SOMERVILLE CLOUDY 33 20 58 N6 30.24F WCI 28 SUSSEX CLOUDY 30 20 66 N3 30.25F ANDOVER N/A 29 20 69 NE7 30.24F WCI 22 TRENTON CLOUDY 32 20 61 NE5 30.26F WCI 27 MILLVILLE CLOUDY 34 24 67 NW3 30.28S ATLANTIC CITY CLOUDY 34 21 59 NW7 30.28R WCI 28 WRIGHTSTOWN CLOUDY 33 21 63 N2 30.25R TOMS RIVER CLOUDY 34 21 60 NW7 30.27S WCI 28 BELMAR CLOUDY 34 18 51 N6 30.25F WCI 29 $$ PAZ047>061-062-071-201900- EASTERN PENNSYLVANIA CITY SKY/WX TMP DP RH WIND PRES REMARKS PHILADELPHIA CLOUDY 35 20 54 NW6 30.29S WCI 30 ALLENTOWN CLOUDY 33 22 63 N3 30.24F SCRANTON CLOUDY 31 19 61 N7 30.21F WCI 24 $$ CTZ002-004>006-009-010-012-RIZ004-006-007-MAZ004-011-015-201900- SOUTHERN NEW ENGLAND IN CT CITY SKY/WX TMP DP RH WIND PRES REMARKS BRADLEY INTL CLOUDY 30 18 60 N7 30.26F WCI 23 HARTFORD CLOUDY 29 19 66 N7 30.27F WCI 22 DANBURY CLOUDY 29 17 61 NW6 30.26S WCI 23 WTRBRY/OXFORD CLOUDY 28 18 64 NE6 30.24F WCI 22 BRIDGEPORT CLOUDY 34 22 61 CALM 30.27S MERIDEN CLOUDY 30 19 63 N5 30.27S WCI 25 NEW HAVEN CLOUDY 34 21 59 N6 30.27S WCI 29 CHESTER CLOUDY 32 23 69 NW3 30.25S GROTON CLOUDY 33 24 69 W6 30.25S WCI 28 WILLIMANTIC CLOUDY 34 22 61 N5 30.25F WCI 30 IN RI CITY SKY/WX TMP DP RH WIND PRES REMARKS PROVIDENCE CLOUDY 36 24 62 N10 30.25S WCI 28 BLOCK ISLAND CLOUDY 37 27 65 N6 30.22S WCI 33 WESTERLY CLOUDY 35 25 66 W3 30.25S IN MA CITY SKY/WX TMP DP RH WIND PRES REMARKS BOSTON CLOUDY 33 24 69 N8 30.27S WCI 26 WORCESTER PTSUNNY 32 19 58 CALM 30.21F WESTFIELD CLOUDY 32 18 56 CALM 30.26F PROVINCETOWN CLOUDY 41 34 75 NE8 30.23S NANTUCKET CLOUDY 43 33 68 N13G18 30.21S $$ ANZ330-335-338-340-345-350-353-355-201900- COASTAL MARINE OBSERVATIONS STATION/POSITION TIME SKY/WX TEMP WIND PRES VSBY WAVE AIR SEA DIR/SP/G HT/PER (UTC) (F) (DEG/KT/KT) (MB) (MI) (FT/S) NY HARB ENTRANCE 1800 33 46 350/ 8/ 12 1025.0 1/11 4S FIRE IS 1800 46 N/A 1/11 20S FIRE ISLAND 1700 36 49 1025.7 1/ 3 23SW MTP 1800 N/A 1/11 HUDSON CANYON 1800 38 54 350/ 12/ 16 1023.0 2/ 4 EXECUTION ROCKS 1800 32 41 320/ 4/ 6 N/A WESTERN LI SOUND 1800 32 280/ 4/ 8 N/A 0 CENTRAL LI SOUND 1700 32 44 330/ 4/ 8 N/A 1 EASTERN LI SOUND NOT AVBL ROBBINS REEF 1800 31 150/ 4/ 8 1023.6 $$ >>>>>>>>>>>>>>>>>>>>>>>>>>>> KEY <<<<<<<<<<<<<<<<<<<<<<<<<<< > < > SKY/WX - SKY CONDITION/PRESENT WEATHER < > TMP - TEMPERATURE IN FAHRENHEIT < > DP - DEWPOINT IN FAHRENHEIT < > RH - RELATIVE HUMIDITY IN PERCENT < > WIND - DIRECTION AND SPEED IN MPH < > PRES - MEAN SEA LEVEL PRESSURE IN INCHES OF HG < > WCI - WIND CHILL INDEX < > VSB - VISIBILITY IN MILES < > HX - HEAT INDEX < > TC - TEMPERATURE IN CELSIUS < > VRB - VARIABLE WIND DIRECTION < > < >>>>>>>>>>>>>>>>>>>>>>>>>>>> KEY <<<<<<<<<<<<<<<<<<<<<<<<<<<

USA.gov is the U.S. government's official web portal to all federal, state and local government web resources and services.